Weather History for KCON - January, 2013

Change the Weather History Date:

Friday, January 4, 2013

  Actual Average Record
Temperature  
Mean Temperature 17 °F 21 °F  
Max Temperature 36 °F 31 °F 68 °F (1950)
Min Temperature -3 °F 11 °F -23 °F (1904)
Degree Days  
Heating Degree Days 48 44  
Month to date heating degree days 204 174  
Since 1 July heating degree days 2724 2920  
Cooling Degree Days 0 0  
Month to date cooling degree days 0 0  
Year to date cooling degree days 0 0  
Moisture  
Dew Point 11 °F    
Average Humidity 70    
Maximum Humidity 87    
Minimum Humidity 52    
Precipitation  
Precipitation 0.00 in 0.09 in 1.47 in (1982)
Month to date precipitation T 0.36  
Year to date precipitation T 0.36  
Snow  
Snow 0.00 in 0.50 in 17.50 in (2003)
Month to date snowfall T 2.2  
Since 1 July snowfall 14.4 19.3  
Snow Depth 6.00 in    
Sea Level Pressure  
Sea Level Pressure 29.86 in    
Wind  
Wind Speed 4 mph (WSW)    
Max Wind Speed 21 mph    
Max Gust Speed 28 mph    
Visibility 9 miles    
Events      
T = Trace of Precipitation, MM = Missing Value Source: NWS Daily Summary

Daily Weather History Graph

Daily Weather History Graph

Search for Another Location

Airport or City:

Trip Planner

Search our weather history database for the weather conditions in past years. The results will help you decide how hot, cold, wet, or windy it might be!

Date:

Astronomy

Jan. 04, 2013 Rise Set
Actual Time 7:18 AM EST 4:24 PM EST
Civil Twilight 6:45 AM EST 4:56 PM EST
Nautical Twilight 6:10 AM EST 5:32 PM EST
Astronomical Twilight 5:35 AM EST 6:06 PM EST
Moon No Moon Rise 10:46 AM EST (1/4)
Length of Visible Light 10h 10m
Length of Day
9h 06m
Waning Gibbous, 55% of the Moon is Illuminated
Jan 4
Waning Gibbous
Jan 4
Last Quarter
Jan 11
New
Jan 18
First Quarter
Jan 26
Full

Hourly Weather History & Observations

Time (EST) Temp. Windchill Dew Point Humidity Pressure Visibility Wind Dir Wind Speed Gust Speed Precip Events Conditions
12:51 AM -2.0 °F - -5.1 °F 87% 29.96 in 10.0 mi Calm Calm - N/A   Clear
1:51 AM -0.9 °F - -5.1 °F 83% 29.96 in 9.0 mi Calm Calm - N/A   Overcast
2:51 AM -0.0 °F - -4.0 °F 83% 29.96 in 9.0 mi Calm Calm - N/A   Partly Cloudy
4:51 AM -0.9 °F - -5.1 °F 83% 29.94 in 8.0 mi Calm Calm - N/A   Clear
5:51 AM -0.0 °F - -4.0 °F 83% 29.94 in 8.0 mi Calm Calm - N/A   Overcast
6:51 AM 3.0 °F - -0.0 °F 87% 29.95 in 8.0 mi Calm Calm - N/A   Overcast
7:51 AM 5.0 °F - 1.0 °F 84% 29.94 in 6.0 mi Calm Calm - N/A   Overcast
8:51 AM 8.1 °F - 3.9 °F 83% 29.92 in 7.0 mi Calm Calm - N/A   Overcast
9:51 AM 12.9 °F - 7.0 °F 77% 29.91 in 6.0 mi Calm Calm - N/A   Haze
10:51 AM 18.0 °F 11.1 °F 10.9 °F 74% 29.88 in 7.0 mi South 4.6 mph - N/A   Mostly Cloudy
11:51 AM 28.0 °F 21.7 °F 17.1 °F 63% 29.82 in 10.0 mi SW 5.8 mph - N/A   Clear
12:51 PM 33.1 °F 27.7 °F 19.0 °F 56% 29.78 in 10.0 mi SW 5.8 mph - N/A   Clear
1:51 PM 35.1 °F 26.4 °F 19.0 °F 52% 29.78 in 10.0 mi West 12.7 mph 23.0 mph N/A   Clear
2:51 PM 35.6 °F 29.2 °F 19.4 °F 52% 29.77 in 10.0 mi West 8.1 mph - N/A   Overcast
3:51 PM 35.1 °F 30.1 °F 19.0 °F 52% 29.80 in 10.0 mi West 5.8 mph - N/A   Scattered Clouds
4:51 PM 34.0 °F 28.8 °F 19.9 °F 56% 29.79 in 10.0 mi WSW 5.8 mph - N/A   Overcast
5:51 PM 34.0 °F 28.8 °F 19.9 °F 56% 29.79 in 10.0 mi WSW 5.8 mph - N/A   Overcast
6:51 PM 34.0 °F - 19.9 °F 56% 29.80 in 10.0 mi Calm Calm - N/A   Overcast
7:51 PM 33.1 °F 26.9 °F 19.9 °F 59% 29.80 in 10.0 mi WSW 6.9 mph - N/A   Overcast
8:51 PM 34.0 °F 26.6 °F 21.0 °F 59% 29.80 in 10.0 mi WSW 9.2 mph - N/A   Overcast
9:51 PM 34.0 °F 29.8 °F 21.0 °F 59% 29.80 in 10.0 mi Variable 4.6 mph - N/A   Overcast
10:51 PM 33.1 °F 24.9 °F 19.9 °F 59% 29.80 in 10.0 mi West 10.4 mph 16.1 mph N/A   Mostly Cloudy
11:51 PM 32.0 °F 23.0 °F 21.0 °F 64% 29.79 in 10.0 mi West 11.5 mph - N/A   Overcast